| time (UTC) | temp F | wind direction | speed MPH | gust MPH | rain 1hr in | rain 24hr in | rain mn in | humidity % | barometer mb |
| 20260904031505 | 65 | 287 | 0.0 | 1.0 | 0.00 | 0.00 | 0.00 | 81 | 1021.3 |
| 20260904030035 | 64 | 288 | 0.0 | 1.0 | 0.00 | 0.00 | 0.00 | 82 | 1021.2 |
| 20260904024511 | 65 | 39 | 0.0 | 2.0 | 0.00 | 0.00 | 0.00 | 82 | 1021.4 |
| 20260904023040 | 64 | 327 | 0.0 | 1.0 | 0.00 | 0.00 | 0.00 | 84 | 1021.4 |
| 20260904021608 | 64 | 326 | 0.0 | 2.0 | 0.00 | 0.00 | 0.00 | 85 | 1021.3 |
| 20260904020031 | 64 | 326 | 0.0 | 1.0 | 0.00 | 0.00 | 0.00 | 84 | 1021.4 |
| 20260904014501 | 65 | 322 | 0.0 | 1.0 | 0.00 | 0.00 | 0.00 | 83 | 1021.2 |
| 20260904013038 | 65 | 314 | 0.0 | 0.0 | 0.00 | 0.00 | 0.00 | 82 | 1021.2 |
| 20260904011502 | 65 | 314 | 0.0 | 2.0 | 0.00 | 0.00 | 0.00 | 81 | 1021.2 |
| 20260904010040 | 66 | 314 | 0.0 | 1.0 | 0.00 | 0.00 | 0.00 | 80 | 1021.2 |
| 20260904004503 | 66 | 289 | 0.0 | 1.0 | 0.00 | 0.00 | 0.00 | 81 | 1021.2 |
| 20260904003036 | 66 | 321 | 0.0 | 1.0 | 0.00 | 0.00 | 0.00 | 80 | 1021.2 |
| 20260904001501 | 65 | 321 | 0.0 | 1.0 | 0.00 | 0.00 | 0.00 | 82 | 1021.1 |
| 20260904000033 | 66 | 321 | 0.0 | 1.0 | 0.00 | 0.00 | 0.00 | 80 | 1021.1 |
| 20260903234605 | 66 | 344 | 0.0 | 1.0 | 0.00 | 0.00 | 0.00 | 81 | 1021.1 |
| 20260903233025 | 67 | 318 | 0.0 | 0.0 | 0.00 | 0.00 | 0.00 | 79 | 1021.0 |
| 20260903231548 | 67 | 318 | 0.0 | 2.0 | 0.00 | 0.00 | 0.00 | 78 | 1021.0 |
| 20260903230011 | 68 | 292 | 0.0 | 1.0 | 0.00 | 0.00 | 0.00 | 77 | 1021.0 |
| 20260903224602 | 68 | 270 | 0.0 | 1.0 | 0.00 | 0.00 | 0.00 | 77 | 1020.9 |
| 20260903223013 | 69 | 342 | 0.0 | 1.0 | 0.00 | 0.00 | 0.00 | 75 | 1021.0 |
| 20260903221545 | 69 | 357 | 0.0 | 1.0 | 0.00 | 0.00 | 0.00 | 74 | 1020.9 |
| 20260903220015 | 69 | 78 | 0.0 | 2.0 | 0.00 | 0.00 | 0.00 | 74 | 1020.9 |
| 20260903214541 | 69 | 10 | 0.0 | 3.0 | 0.00 | 0.00 | 0.00 | 74 | 1020.8 |
| 20260903213015 | 70 | 13 | 0.0 | 3.0 | 0.00 | 0.00 | 0.00 | 74 | 1020.7 |
| 20260903211555 | 70 | 84 | 0.0 | 3.0 | 0.00 | 0.00 | 0.00 | 73 | 1020.5 |
| 20260903210027 | 71 | 71 | 2.0 | 5.0 | 0.00 | 0.00 | 0.00 | 71 | 1020.5 |
| 20260903204552 | 70 | 27 | 2.0 | 4.0 | 0.00 | 0.00 | 0.00 | 72 | 1020.3 |
| 20260903203022 | 71 | 8 | 0.0 | 0.0 | 0.00 | 0.00 | 0.00 | 70 | 1020.2 |
| 20260903201553 | 72 | 8 | 0.0 | 1.0 | 0.00 | 0.00 | 0.00 | 68 | 1020.2 |
| 20260903200015 | 72 | 11 | 1.0 | 2.0 | 0.00 | 0.00 | 0.00 | 68 | 1020.3 |
| 20260903194547 | 72 | 4 | 1.0 | 2.0 | 0.00 | 0.00 | 0.00 | 67 | 1020.1 |
| 20260903193028 | 73 | 39 | 1.0 | 1.0 | 0.00 | 0.00 | 0.00 | 66 | 1020.0 |
| 20260903191559 | 73 | 57 | 0.0 | 1.0 | 0.00 | 0.00 | 0.00 | 67 | 1020.0 |
| 20260903190032 | 74 | 57 | 0.0 | 1.0 | 0.00 | 0.00 | 0.00 | 65 | 1019.9 |
| 20260903184503 | 74 | 341 | 0.0 | 2.0 | 0.00 | 0.00 | 0.00 | 62 | 1019.8 |
| 20260903183045 | 76 | 323 | 1.0 | 2.0 | 0.00 | 0.00 | 0.00 | 60 | 1019.7 |
| 20260903181509 | 77 | 284 | 0.0 | 2.0 | 0.00 | 0.00 | 0.00 | 60 | 1019.5 |
| 20260903180047 | 77 | 302 | 1.0 | 4.0 | 0.00 | 0.00 | 0.00 | 58 | 1019.3 |
| 20260903174518 | 78 | 249 | 1.0 | 4.0 | 0.00 | 0.00 | 0.00 | 55 | 1019.2 |
| 20260903173047 | 79 | 322 | 0.0 | 2.0 | 0.00 | 0.00 | 0.00 | 55 | 1019.1 |
| 20260903171521 | 79 | 283 | 1.0 | 2.0 | 0.00 | 0.00 | 0.00 | 54 | 1019.1 |
| 20260903170055 | 80 | 141 | 0.0 | 3.0 | 0.00 | 0.00 | 0.00 | 54 | 1019.1 |
| 20260903164523 | 81 | 220 | 0.0 | 1.0 | 0.00 | 0.00 | 0.00 | 53 | 1018.9 |
| 20260903163003 | 82 | 198 | 0.0 | 3.0 | 0.00 | 0.00 | 0.00 | 49 | 1019.0 |
| 20260903161537 | 83 | 217 | 2.0 | 4.0 | 0.00 | 0.00 | 0.00 | 48 | 1018.9 |
| 20260903160128 | 84 | 214 | 1.0 | 4.0 | 0.00 | 0.00 | 0.00 | 47 | 1018.7 |
| 20260903154531 | 84 | 214 | 2.0 | 8.0 | 0.00 | 0.00 | 0.00 | 46 | 1018.6 |
| 20260903153002 | 85 | 105 | 2.0 | 7.0 | 0.00 | 0.00 | 0.00 | 45 | 1018.7 |
| 20260903151517 | 85 | 173 | 3.0 | 9.0 | 0.00 | 0.00 | 0.00 | 44 | 1018.5 |
| 20260903150049 | 86 | 179 | 3.0 | 10.0 | 0.00 | 0.00 | 0.00 | 46 | 1018.4 |
| 20260903144521 | 86 | 185 | 2.0 | 7.0 | 0.00 | 0.00 | 0.00 | 46 | 1018.4 |
| 20260903143111 | 85 | 146 | 2.0 | 7.0 | 0.00 | 0.00 | 0.00 | 46 | 1018.4 |
| 20260903141525 | 85 | 155 | 1.0 | 7.0 | 0.00 | 0.00 | 0.00 | 46 | 1018.9 |
| 20260903140049 | 85 | 256 | 4.0 | 10.0 | 0.00 | 0.00 | 0.00 | 46 | 1018.8 |
| 20260903134520 | 86 | 224 | 2.0 | 5.0 | 0.00 | 0.00 | 0.00 | 45 | 1019.1 |
| 20260903133051 | 86 | 150 | 1.0 | 4.0 | 0.00 | 0.00 | 0.00 | 44 | 1019.2 |
| 20260903131531 | 85 | 210 | 2.0 | 6.0 | 0.00 | 0.00 | 0.00 | 44 | 1019.2 |
| 20260903130103 | 85 | 267 | 2.0 | 5.0 | 0.00 | 0.00 | 0.00 | 47 | 1019.2 |
| 20260903124534 | 85 | 37 | 0.0 | 4.0 | 0.00 | 0.00 | 0.00 | 47 | 1019.3 |
| 20260903123001 | 84 | 154 | 1.0 | 5.0 | 0.00 | 0.00 | 0.00 | 50 | 1019.4 |
| 20260903121533 | 83 | 284 | 3.0 | 5.0 | 0.00 | 0.00 | 0.00 | 52 | 1019.5 |
| 20260903120105 | 83 | 76 | 1.0 | 4.0 | 0.00 | 0.00 | 0.00 | 53 | 1019.7 |
| 20260903114527 | 82 | 91 | 1.0 | 4.0 | 0.00 | 0.00 | 0.00 | 53 | 1019.8 |
| 20260903113100 | 83 | 143 | 0.0 | 3.0 | 0.00 | 0.00 | 0.00 | 54 | 1020.0 |
| 20260903111538 | 81 | 181 | 0.0 | 4.0 | 0.00 | 0.00 | 0.00 | 57 | 1020.3 |
| 20260903110003 | 81 | 357 | 1.0 | 2.0 | 0.00 | 0.00 | 0.00 | 54 | 1020.6 |
| 20260903104544 | 79 | 223 | 1.0 | 4.0 | 0.00 | 0.00 | 0.00 | 58 | 1020.7 |
| 20260903103009 | 78 | 110 | 1.0 | 3.0 | 0.00 | 0.00 | 0.00 | 58 | 1020.8 |
| 20260903101542 | 79 | 101 | 1.0 | 4.0 | 0.00 | 0.00 | 0.00 | 60 | 1020.9 |
| 20260903100020 | 77 | 139 | 1.0 | 3.0 | 0.00 | 0.00 | 0.00 | 61 | 1021.2 |
| 20260903094554 | 76 | 247 | 1.0 | 3.0 | 0.00 | 0.00 | 0.00 | 63 | 1021.4 |
| 20260903093036 | 76 | 217 | 0.0 | 3.0 | 0.00 | 0.00 | 0.00 | 63 | 1021.7 |
| 20260903091514 | 75 | 218 | 2.0 | 3.0 | 0.00 | 0.00 | 0.00 | 66 | 1022.0 |
| 20260903090043 | 73 | 54 | 0.0 | 5.0 | 0.00 | 0.00 | 0.00 | 69 | 1022.1 |
| 20260903084513 | 72 | 136 | 1.0 | 6.0 | 0.00 | 0.00 | 0.00 | 70 | 1022.0 |
| 20260903083042 | 72 | 152 | 0.0 | 2.0 | 0.00 | 0.00 | 0.00 | 70 | 1022.2 |
| 20260903081528 | 71 | 111 | 1.0 | 3.0 | 0.00 | 0.00 | 0.00 | 72 | 1022.2 |
| 20260903080048 | 71 | 106 | 0.0 | 4.0 | 0.00 | 0.00 | 0.00 | 72 | 1022.2 |
| 20260903074534 | 70 | 184 | 2.0 | 5.0 | 0.00 | 0.00 | 0.00 | 74 | 1022.2 |
| 20260903073013 | 70 | 229 | 0.0 | 3.0 | 0.00 | 0.00 | 0.00 | 75 | 1022.2 |
| 20260903071545 | 70 | 219 | 0.0 | 2.0 | 0.00 | 0.00 | 0.00 | 75 | 1022.3 |
| 20260903070021 | 69 | 141 | 0.0 | 0.0 | 0.00 | 0.00 | 0.00 | 77 | 1022.3 |
| 20260903064504 | 68 | 139 | 0.0 | 0.0 | 0.00 | 0.00 | 0.00 | 78 | 1022.2 |
| 20260903063106 | 66 | 134 | 0.0 | 0.0 | 0.00 | 0.00 | 0.00 | 81 | 1022.2 |
| 20260903061517 | 65 | 60 | 0.0 | 0.0 | 0.00 | 0.00 | 0.00 | 86 | 1022.0 |
| 20260903060046 | 63 | 82 | 0.0 | 0.0 | 0.00 | 0.00 | 0.00 | 86 | 1021.9 |
| 20260903054530 | 64 | 115 | 0.0 | 0.0 | 0.00 | 0.00 | 0.00 | 86 | 1021.8 |
| 20260903053011 | 63 | 315 | 0.0 | 0.0 | 0.00 | 0.00 | 0.00 | 87 | 1021.6 |
| 20260903051557 | 61 | 315 | 0.0 | 0.0 | 0.00 | 0.00 | 0.00 | 90 | 1021.4 |
| 20260903050106 | 60 | 303 | 0.0 | 0.0 | 0.00 | 0.00 | 0.00 | 91 | 1021.3 |
| 20260903044526 | 60 | 302 | 0.0 | 0.0 | 0.00 | 0.00 | 0.00 | 91 | 1021.2 |
| 20260903043008 | 60 | 356 | 0.0 | 0.0 | 0.00 | 0.00 | 0.00 | 91 | 1021.1 |
| 20260903041600 | 60 | 356 | 0.0 | 0.0 | 0.00 | 0.00 | 0.00 | 91 | 1021.2 |
| 20260903040058 | 60 | 356 | 0.0 | 0.0 | 0.00 | 0.00 | 0.00 | 91 | 1021.1 |
| 20260903034536 | 60 | 356 | 0.0 | 0.0 | 0.00 | 0.00 | 0.00 | 91 | 1021.1 |
| 20260903033020 | 61 | 77 | 1.0 | 2.0 | 0.00 | 0.00 | 0.00 | 90 | 1021.2 |